Regional Weather Roundup
Issued by NWS

Home | Current Version | Previous Version | Text Only | Print | Product List | Glossary Off
Versions: 1 2 3 4 5 6 7 8 9 10 11 12 13 14 15 16 17 18 19 20 21 22 23 24 25 26 27 28 29 30 31 32 33 34 35 36 37 38 39 40 41 42 43 44 45 46 47 48 49 50

089
ASUS43 KOAX 210902
RWRNE

WEATHER ROUNDUP FOR NEBRASKA
NATIONAL WEATHER SERVICE OMAHA NE
300 AM CST TUE FEB 21 2017

NOTES: SATELLITE DATA IS BEING USED TO AUGMENT CLOUD COVER ABOVE
       12000 FEET.
       "FAIR" INDICATES FEW OR NO CLOUDS BELOW 12,000 FEET WITH NO
       SIGNIFICANT WEATHER AND/OR OBSTRUCTIONS TO VISIBILITY.

  * THESE STATIONS DO NOT REPORT WEATHER SUCH AS RAIN...SNOW OR FOG.

NEZ001>004-019>022-054>056-211000-
NEBRASKA PANHANDLE

CITY           SKY/WX    TMP DP  RH WIND       PRES   REMARKS
SCOTTSBLUFF    CLOUDY    36  22  56 N3        29.93S
ALLIANCE       CLOUDY    34  23  64 SW7       29.92S WCI  28
CHADRON        CLEAR     41  26  55 S6        29.86S
KIMBALL        CLOUDY    37  21  51 W12       29.97S WCI  29
SIDNEY         CLOUDY    33  18  53 W8        29.95F WCI  26
$$

NEZ057>060-069>072-079>082-211000-
SOUTHWEST NEBRASKA

CITY           SKY/WX    TMP DP  RH WIND       PRES   REMARKS
NORTH PLATTE   CLOUDY    26  21  81 W3        29.96F
IMPERIAL       CLOUDY    33  18  53 SW6       29.97F WCI  28
LEXINGTON      CLOUDY    28  25  86 CALM      29.98R
MCCOOK         CLOUDY    30  22  72 W6        29.99R WCI  24
OGALLALA       CLEAR     40  20  45 CALM      29.95F
$$

NEZ005>010-023>029-035>040-094-211000-
NORTH CENTRAL NEBRASKA

CITY           SKY/WX    TMP DP  RH WIND       PRES   REMARKS
VALENTINE      CLEAR     45  26  47 SW16      29.86F
AINSWORTH      CLEAR     42  25  50 SW14      29.89S
BROKEN BOW     CLEAR     30  25  81 CALM      29.95R
O`NEILL        CLEAR     37  31  77 SW6       29.91R WCI  32
ORD            CLEAR     29  25  85 CALM      29.93F
THEDFORD       CLEAR     40  21  47 CALM      29.93F
$$

NEZ041-046>049-061>064-073>077-083>087-211000-
SOUTH CENTRAL NEBRASKA

CITY           SKY/WX    TMP DP  RH WIND       PRES   REMARKS
GRAND ISLAND   CLEAR     38  34  85 SW5       29.97R WCI  34
AURORA         CLEAR     36  33  88 W8        29.97S WCI  30
HASTINGS       CLEAR     38  31  76 SW3       29.97F
HEBRON         CLOUDY    31  30  96 W3        29.98S
HOLDREGE       CLOUDY    38  27  64 SW5       29.98R WCI  35
KEARNEY *      CLEAR     39  28  65 SW8       29.98R WCI  34
YORK           CLEAR     32  32 100 W7        29.97R WCI  26
$$

NEZ011>018-030>034-042>045-211000-
NORTHEAST NEBRASKA

CITY           SKY/WX    TMP DP  RH WIND       PRES   REMARKS
NORFOLK        CLEAR     30  28  92 CALM      29.92F FOG
ALBION         CLEAR     33  30  89 CALM      29.95S
BLAIR          CLEAR     41  38  88 SW3       29.95S
FREMONT        PTCLDY    33  33 100 CALM      29.96S FOG
TEKAMAH        CLEAR     33  30  88 CALM      29.95S
WAYNE          CLEAR     30  29  96 SW3       29.93F
$$

NEZ050>053-065>068-078-088>093-211000-
SOUTHEAST NEBRASKA

CITY           SKY/WX    TMP DP  RH WIND       PRES   REMARKS
LINCOLN        CLEAR     32  31  96 CALM      29.98S
OMAHA EPPLEY   CLEAR     35  30  82 CALM      29.97R
BEATRICE       FOG       31  31  99 CALM      29.98S VSB 1
FALLS CITY     CLEAR     42  40  92 CALM      29.96F
NEBRASKA CITY  CLEAR     45  38  77 N3        29.96S
PLATTSMOUTH    CLEAR     40  36  84 W6        29.97R
$$

NEZ044-045-051>053-067-211000-
OMAHA AREA

CITY           SKY/WX    TMP DP  RH WIND       PRES   REMARKS
OMAHA EPPLEY   CLEAR     35  30  82 CALM      29.97R
BLAIR          CLEAR     41  38  88 SW3       29.95S
FREMONT        PTCLDY    33  33 100 CALM      29.96S FOG
MILLARD        FOG       36  35  96 CALM      29.97S VSB 3/4
PLATTSMOUTH    CLEAR     40  36  84 W6        29.97R
WAHOO          FAIR      31  30  96 CALM      29.96F
$$




USA.gov is the U.S. government's official web portal to all federal, state and local government web resources and services.